[[{"header":{"parameterUnit":"m.s-1","parameterCategory":1,"la1":30.2991,"la2":30.254,"lo1":-89.0895,"lo2":-89.0444,"dy":0.0017,"dx":0.0017,"nx":28,"ny":28,"refTime":"2023-07-18T03:00:00:Z","depth":0,"parameterNumber":2,"parameterNumberName":"U-component_of_WINDS"},"data":[0,0,0,0,0,0,0,0,0,0,0,0,0,0,0,0,0,0,0,0,0,0,0,0,0,0,0,0,0,0,0,0,0,0,0,0,0,0,0,0,0,0,0,0,0,0,0,0,0,0,0,0,0,0,0,0,0,0,0.4615,0.4616,0,0.4691,0.4692,0.4693,0.4719,0.4718,0.4718,0.4718,0.4795,0.4797,0.4799,0,0,0,0,0,0,0,0,0,0,0,0,0,0.4488,0.4491,0.4615,0.4616,0.4617,0.4691,0.4692,0.4693,0.4719,0.4718,0.4718,0.4717,0.4794,0.4797,0.48,0,0,0,0,0,0,0,0,0,0,0,0,0,0.4552,0.4491,0.4615,0.4638,0.4641,0.4691,0.4692,0.4694,0.4719,0.4718,0.4718,0.4717,0.4793,0.4796,0.48,0.4831,0,0,0.4811,0.4812,0,0,0,0,0,0,0,0,0.4548,0.4556,0.4634,0.4637,0.464,0.4695,0.4676,0.474,0.4719,0.4689,0.4718,0.4717,0.4762,0.4768,0.4783,0.4835,0.4838,0.4811,0.4813,0.4815,0.4816,0,0,0,0,0,0,0,0.4544,0.4553,0.4645,0.4635,0.4639,0.4644,0.4653,0.4688,0.4727,0.4692,0.4694,0.4703,0.4763,0.478,0.4785,0.4839,0.4811,0.4814,0.4816,0.4818,0.4919,0.492,0,0,0,0,0,0,0.4536,0.4549,0.4643,0.4647,0.4592,0.4647,0.4657,0.4678,0.4727,0.4734,0.4703,0.4704,0.4774,0.4781,0.4788,0.4827,0.4815,0.4818,0.482,0.4919,0.492,0.492,0,0,0,0,0,0,0.4533,0.4544,0.464,0.4599,0.4612,0.465,0.4673,0.468,0.4696,0.4735,0.4742,0.4713,0.4774,0.4783,0.482,0.483,0.482,0.4823,0.4918,0.4919,0.492,0.4907,0,0,0,0,0,0,0.4529,0.4543,0.4555,0.4599,0.4614,0.4671,0.4674,0.4681,0.4702,0.4704,0.4746,0.4753,0.4774,0.4815,0.4824,0.4835,0.4826,0.4917,0.4919,0.492,0.4906,0.4907,0.4908,0,0,0,0,0,0.4524,0.4549,0.4556,0.4567,0.4631,0.4672,0.468,0.4704,0.4703,0.4716,0.4741,0.4752,0.4828,0.4818,0.4829,0.4841,0.4917,0.4918,0.4919,0.4906,0.4907,0.4907,0,0,0,0,0,0,0.4505,0.4555,0.4564,0.4603,0.4633,0.4676,0.4693,0.4704,0.4735,0.4735,0.4764,0.4773,0.4808,0.4828,0.4817,0.4874,0.4873,0.4876,0.4859,0.486,0.4861,0.4855,0.4828,0,0,0,0,0,0.4505,0.4535,0.4577,0.4607,0.4622,0.4654,0.4673,0.4689,0.4721,0.4734,0.4762,0.4792,0.4823,0.4843,0.4873,0.4909,0.4918,0.4923,0.4923,0.4924,0.4926,0.4946,0.4948,0.4924,0.4924,0.4924,0,0,0.4506,0.4537,0.4554,0.4604,0.4629,0.4658,0.4665,0.4696,0.4718,0.4739,0.4776,0.4797,0.4832,0.4869,0.4886,0.4887,0.4935,0.4925,0.4925,0.4928,0.4948,0.495,0.4952,0.4925,0.4925,0.4925,0,0,0.4522,0.4549,0.4577,0.4602,0.464,0.4662,0.4668,0.4709,0.4724,0.4762,0.4778,0.4804,0.4856,0.4881,0.49,0.4924,0.4935,0.4933,0.4937,0.4955,0.4957,0.4959,0.4967,0.497,0.4936,0.4936,0.4936,0,0.4518,0.4564,0.459,0.462,0.4641,0.4661,0.4689,0.4712,0.4758,0.4771,0.4771,0.4837,0.4863,0.4905,0.4911,0.4926,0.4933,0.4929,0.4955,0.4957,0.4959,0.4967,0.497,0.4935,0.4935,0.4936,0.4936,0,0.4556,0.4588,0.4605,0.465,0.4673,0.4701,0.4731,0.4751,0.4765,0.4786,0.4823,0.4854,0.4891,0.4902,0.4916,0.4946,0.4945,0.4949,0.4949,0.496,0.4968,0.4972,0.4935,0.4935,0.4935,0.4935,0,0,0.4563,0.4621,0.4627,0.4647,0.469,0.4714,0.4743,0.4779,0.4796,0.4826,0.4851,0.4894,0.4899,0.492,0.4937,0.4954,0.497,0.4956,0.4958,0.4957,0.5004,0.5,0.5003,0.4977,0.4978,0.4978,0.5001,0,0.4585,0.4639,0.4662,0.4705,0.4733,0.4753,0.4778,0.4807,0.4827,0.4853,0.4876,0.4906,0.491,0.4923,0.494,0.4964,0.498,0.4963,0.5,0.5001,0.499,0.5008,0.5004,0.5023,0.5004,0.5005,0.5005,0,0.4617,0.4648,0.4694,0.4733,0.4746,0.4768,0.4803,0.4828,0.486,0.4874,0.4898,0.4913,0.4944,0.4941,0.4983,0.4971,0.4987,0.5001,0.5003,0.5007,0.5004,0.5012,0.503,0.5033,0.501,0.501,0.501,0,0.4617,0.467,0.4704,0.472,0.4767,0.4782,0.4802,0.4834,0.4854,0.4884,0.4897,0.493,0.4948,0.4972,0.4996,0.4992,0.5035,0.5035,0.5047,0.5046,0.5055,0.5054,0.5076,0.5066,0.5066,0.5066,0.5066,0,0.4638,0.4665,0.4704,0.4725,0.4756,0.4782,0.4811,0.4832,0.486,0.4885,0.4904,0.4926,0.4956,0.4982,0.5001,0.5032,0.504,0.5051,0.5056,0.505,0.5048,0.5061,0.506,0.5066,0.5066,0.5066,0.5066,0,0.4643,0.4671,0.4709,0.475,0.476,0.4781,0.4815,0.4836,0.4857,0.4887,0.4896,0.4929,0.496,0.4987,0.5028,0.504,0.5073,0.5078,0.5062,0.5064,0.5075,0.5073,0.5105,0.5111,0.5097,0.5097,0.5097,0,0.4655,0.4677,0.4719,0.4738,0.4757,0.4786,0.4807,0.4833,0.4853,0.4891,0.4907,0.494,0.4968,0.5017,0.5044,0.5076,0.5082,0.5091,0.5087,0.5079,0.5081,0.508,0.5082,0.5091,0.5091,0.5091,0.5091,0,0.4673,0.4686,0.4715,0.4748,0.4772,0.48,0.4828,0.4842,0.4873,0.4895,0.4927,0.4949,0.4991,0.5023,0.5057,0.5077,0.5089,0.5092,0.5097,0.509,0.508,0.5085,0.5063,0.5091,0.5091,0.5091,0.5091,0.5091,0.4682,0.4701,0.4735,0.4766,0.479,0.4816,0.4837,0.486,0.4888,0.4925,0.4938,0.4972,0.5002,0.505,0.5069,0.5095,0.5097,0.5103,0.5105,0.5106,0.5105,0.5076,0.5102,0.5102,0.5102,0.5102,0.5102,0,0.4701,0.4723,0.4752,0.479,0.4815,0.4825,0.4856,0.4875,0.4905,0.4933,0.496,0.4997,0.5028,0.5057,0.5089,0.5104,0.511,0.5112,0.5111,0.5115,0.5102,0.5095,0.5106,0.5106,0.5106,0.5106,0.5106,0.5106,0.4713,0.4747,0.4763,0.4808,0.4829,0.4863,0.488,0.4903,0.4925,0.4966,0.4992,0.5011,0.5039,0.5074,0.5102,0.511,0.5121,0.512,0.5129,0.5117,0.5116,0.5115,0.5109,0.5123,0.5123,0.514,0.5141,0.5141]},{"header":{"parameterUnit":"m.s-1","parameterCategory":1,"la1":30.2991,"la2":30.254,"lo1":-89.0895,"lo2":-89.0444,"dy":0.0017,"dx":0.0017,"nx":28,"ny":28,"refTime":"2023-07-18T03:00:00:Z","depth":0,"parameterNumber":3,"parameterNumberName":"V-component_of_WINDS"},"data":[0,0,0,0,0,0,0,0,0,0,0,0,0,0,0,0,0,0,0,0,0,0,0,0,0,0,0,0,0,0,0,0,0,0,0,0,0,0,0,0,0,0,0,0,0,0,0,0,0,0,0,0,0,0,0,0,0,0,5.3598,5.3597,0,5.3514,5.3513,5.3512,5.3397,5.3395,5.3393,5.3392,5.3304,5.3304,5.3303,0,0,0,0,0,0,0,0,0,0,0,0,0,5.3658,5.3657,5.3598,5.3597,5.3596,5.3515,5.3513,5.3512,5.3398,5.3395,5.3393,5.3391,5.3304,5.3304,5.3303,0,0,0,0,0,0,0,0,0,0,0,0,0,5.3609,5.3657,5.3598,5.3529,5.3522,5.3515,5.3513,5.3512,5.3398,5.3395,5.3392,5.339,5.3304,5.3304,5.3303,5.3356,0,0,5.3301,5.33,0,0,0,0,0,0,0,0,5.3612,5.3607,5.354,5.3534,5.3526,5.3463,5.3502,5.346,5.3399,5.3445,5.3392,5.3388,5.3359,5.3354,5.3344,5.3352,5.3348,5.33,5.33,5.33,5.3299,0,0,0,0,0,0,0,5.3615,5.361,5.3565,5.354,5.3531,5.3502,5.3492,5.3494,5.342,5.3441,5.3432,5.3424,5.3355,5.3346,5.3342,5.3347,5.33,5.33,5.3299,5.3299,5.3394,5.3397,0,0,0,0,0,0,5.3629,5.3613,5.3568,5.3562,5.3563,5.3503,5.3492,5.3486,5.3419,5.3406,5.3427,5.3419,5.3348,5.3343,5.3338,5.3396,5.33,5.3299,5.3298,5.3391,5.3394,5.3398,0,0,0,0,0,0,5.3631,5.3626,5.3571,5.3586,5.3576,5.3505,5.35,5.3486,5.3477,5.3408,5.3394,5.3431,5.3346,5.3339,5.3353,5.3391,5.3299,5.3298,5.3387,5.3392,5.3396,5.3512,0,0,0,0,0,0,5.3633,5.3628,5.3647,5.3587,5.3576,5.3588,5.3502,5.3487,5.3476,5.3465,5.3409,5.3396,5.3343,5.3354,5.3352,5.3388,5.3297,5.3383,5.3389,5.3395,5.3504,5.352,5.3533,0,0,0,0,0,5.3636,5.3683,5.3649,5.3644,5.3599,5.359,5.3584,5.3522,5.348,5.3499,5.3455,5.3398,5.3388,5.3357,5.3353,5.339,5.3381,5.3388,5.3394,5.3498,5.3517,5.3533,0,0,0,0,0,0,5.3749,5.3674,5.3635,5.3665,5.3635,5.3571,5.3593,5.3544,5.3525,5.3516,5.3439,5.3427,5.345,5.3421,5.3388,5.3437,5.3376,5.3382,5.3456,5.3473,5.3487,5.3494,5.3297,0,0,0,0,0,5.3778,5.3777,5.3711,5.3743,5.3731,5.3665,5.3659,5.3613,5.3579,5.3566,5.3523,5.3491,5.3481,5.3475,5.3462,5.35,5.3485,5.3523,5.3537,5.355,5.3556,5.3573,5.3589,5.342,5.342,5.342,0,0,5.3837,5.3796,5.38,5.3765,5.3737,5.3738,5.3655,5.3659,5.3659,5.3566,5.3576,5.3544,5.3504,5.353,5.3539,5.3506,5.3599,5.3558,5.3568,5.3568,5.3582,5.3598,5.3612,5.3424,5.3423,5.3423,0,0,5.3944,5.3913,5.3937,5.391,5.3868,5.3824,5.383,5.3774,5.3749,5.3758,5.3689,5.3687,5.367,5.3644,5.3629,5.3728,5.3675,5.3725,5.38,5.3818,5.3832,5.3843,5.3878,5.3891,5.3732,5.3732,5.3732,0,5.4023,5.4021,5.3955,5.3963,5.395,5.3867,5.389,5.3867,5.3824,5.3816,5.378,5.3758,5.3725,5.3743,5.3768,5.3758,5.3762,5.3731,5.3835,5.3846,5.3856,5.3888,5.3901,5.3738,5.3738,5.3737,5.3736,0,5.412,5.412,5.4144,5.4104,5.4093,5.4109,5.4045,5.4042,5.3998,5.3958,5.3968,5.3926,5.3902,5.3903,5.386,5.3916,5.3897,5.3849,5.3785,5.3879,5.3908,5.392,5.3748,5.3745,5.3743,5.3742,0,0,5.4296,5.422,5.4229,5.421,5.4158,5.4157,5.4169,5.4146,5.4146,5.4118,5.4126,5.4114,5.407,5.4053,5.4006,5.4022,5.4102,5.3972,5.397,5.3997,5.4161,5.4197,5.4212,5.4067,5.4069,5.4071,5.4164,0,5.4393,5.441,5.435,5.4382,5.4381,5.4303,5.4313,5.4282,5.4245,5.4238,5.4197,5.419,5.4132,5.4121,5.4133,5.409,5.4134,5.4082,5.4073,5.4073,5.4085,5.4227,5.4265,5.4355,5.4175,5.4177,5.4178,0,5.4509,5.4488,5.452,5.4466,5.4464,5.4474,5.4449,5.4444,5.4407,5.4379,5.436,5.4306,5.4314,5.4253,5.4262,5.4228,5.4221,5.4199,5.4201,5.4197,5.4131,5.4227,5.4382,5.4396,5.4195,5.4194,5.4193,0,5.4634,5.4614,5.463,5.4617,5.4555,5.4564,5.4538,5.4499,5.4489,5.4467,5.446,5.4439,5.4427,5.4411,5.4353,5.4314,5.4369,5.4303,5.4345,5.4347,5.4359,5.4359,5.4515,5.4356,5.4356,5.4355,5.4355,0,5.4749,5.4771,5.4686,5.4696,5.4719,5.465,5.4675,5.4641,5.4607,5.4609,5.4539,5.4542,5.4465,5.446,5.4414,5.4428,5.4423,5.44,5.4388,5.4406,5.4409,5.44,5.4392,5.4359,5.4358,5.4357,5.4357,0,5.4892,5.4836,5.4849,5.4789,5.4775,5.4794,5.4743,5.475,5.4708,5.4712,5.4708,5.4643,5.4633,5.4574,5.4549,5.4519,5.4549,5.4524,5.4562,5.4553,5.4598,5.4595,5.4753,5.4771,5.4601,5.4603,5.4604,0,5.4969,5.4984,5.4927,5.4923,5.4901,5.4897,5.4886,5.482,5.4812,5.4772,5.4783,5.4768,5.4751,5.4739,5.4689,5.467,5.4644,5.4701,5.4641,5.4659,5.4644,5.4644,5.4645,5.4714,5.4716,5.4718,5.4719,0,5.5111,5.5082,5.5071,5.505,5.504,5.502,5.4996,5.4997,5.4923,5.4918,5.4907,5.4894,5.487,5.4855,5.4828,5.4801,5.4748,5.4739,5.4747,5.4766,5.4787,5.4776,5.4597,5.4735,5.4734,5.4732,5.4732,5.4731,5.5223,5.5233,5.5194,5.5183,5.5158,5.5137,5.5141,5.51,5.509,5.5066,5.5027,5.5022,5.4984,5.4942,5.4919,5.4913,5.4883,5.4895,5.4898,5.4902,5.4912,5.4789,5.4908,5.4908,5.4907,5.4907,5.4906,0,5.5361,5.5332,5.5323,5.5292,5.5283,5.5235,5.5206,5.5202,5.5198,5.5168,5.5154,5.5141,5.5127,5.5076,5.5056,5.5061,5.5037,5.5058,5.5057,5.5052,5.4941,5.4935,5.5079,5.5079,5.5079,5.5079,5.5079,5.5079,5.5432,5.5446,5.5413,5.5415,5.5385,5.538,5.5368,5.5348,5.5323,5.5313,5.5301,5.5268,5.5229,5.5206,5.519,5.5176,5.5171,5.5201,5.5179,5.5076,5.5059,5.5044,5.5038,5.5201,5.5201,5.529,5.5291,5.5291]}]]